Regional Weather Roundup
Issued by NWS

Home | Current Version | Previous Version | Text Only | Print | Product List | Glossary On
Versions: 1 2 3 4 5 6 7 8 9 10 11 12 13 14 15 16 17 18 19 20 21 22 23 24 25 26 27 28 29 30 31 32 33 34 35 36 37 38 39 40 41 42 43 44 45 46 47 48 49 50
000
ASUS44 KFWD 230801
RWRTX
NORTH TEXAS HOURLY WEATHER ROUNDUP
NATIONAL WEATHER SERVICE FORT WORTH TX
200 AM CST THU NOV 23 2017

NOTE: "FAIR" INDICATES FEW OR NO CLOUDS BELOW 12,000 FEET WITH NO
SIGNIFICANT WEATHER AND/OR OBSTRUCTIONS TO VISIBILITY.

TXZ118-119-230900-
DALLAS/FORT WORTH METROPLEX

CITY           SKY/WX    TMP DP  RH WIND       PRES   REMARKS
DFW AIRPORT    CLOUDY    43  26  51 CALM      30.22F
DALLAS LOVE    CLEAR     41  30  65 CALM      30.24F
FTW MEACHAM    CLOUDY    40  32  73 CALM      30.23F
DAL-EXECUTIVE  CLOUDY    37  29  72 SW3       30.23F
FTW-ALLIANCE   CLOUDY    31  26  82 CALM      30.22F
FTW-NAS-JRB    CLOUDY    40  24  53 NW3       30.24F
FTW-SPINKS     CLOUDY    31  27  86 CALM      30.25F FOG
ARLINGTON      CLOUDY    32  29  88 CALM      30.24F
GRAND PRAIRIE  CLOUDY    40  28  61 CALM      30.25F
ADDISON        CLEAR     40  29  65 CALM      30.24F
MESQUITE       CLOUDY    35  29  80 CALM      30.24F
LANCASTER      CLOUDY    33  28  82 CALM      30.25F
$$

TXZ091>094-102>105-117-120-121-131>134-230900-
NORTH CENTRAL TEXAS

CITY           SKY/WX    TMP DP  RH WIND       PRES   REMARKS
SHRMAN/DENISON CLOUDY    35  26  70 CALM      30.23S
GAINESVILLE    CLOUDY    32  24  72 CALM      30.23F
BOWIE          CLOUDY    32  27  82 CALM      30.21F
BRIDGEPORT     CLOUDY    30  25  79 CALM      30.24F
DECATUR        CLOUDY    45  18  33 S5        30.20F
DENTON         CLOUDY    33  24  69 CALM      30.23F
MCKINNEY       CLOUDY    33  27  78 CALM      30.23F
BONHAM         CLOUDY    31  25  78 CALM      30.23S
ROCKWALL       CLOUDY    41  24  50 CALM      30.23F
TERRELL        CLOUDY    34  27  75 CALM      30.24F
WAXAHACHIE     CLOUDY    36  28  73 CALM      30.25F
CLEBURNE       HAZE      37  23  56 NW5       30.25F VSB 1   WCI  34
GRANBURY       CLOUDY    33  26  75 CALM      30.25F
$$

TXZ083>090-098>101-113>116-127>130-139>142-154-155-230900-
WESTERN NORTH TEXAS

CITY           SKY/WX    TMP DP  RH WIND       PRES   REMARKS
WICHITA FALLS  CLOUDY    36  20  52 S6        30.19F WCI  31
WF-KICKAPOO    CLOUDY    39  20  46 S5        30.22F WCI  36
VERNON         CLOUDY    37  18  46 SW6       30.18F WCI  32
ABILENE        CLOUDY    37  24  59 S7        30.22F WCI  32
ABILENE-DYESS  CLOUDY    32  28  83 S3        30.20F
GRAHAM           N/A     31  26  81 CALM      30.21S
BRECKENRIDGE   CLOUDY    37  25  61 S6        30.22F WCI  32
CISCO          PTCLDY    39  21  48 SW9       30.22F WCI  33
EASTLAND       CLOUDY    27  23  82 CALM      30.22F
RANGER         CLOUDY    40  24  52 SW7       30.22F WCI  35
MINERAL WELLS  CLOUDY    34  23  64 CALM      30.22F
STEPHENVILLE   CLOUDY    34  27  75 CALM      30.26S
COMANCHE       CLOUDY    38  23  54 CALM      30.24S
BROWNWOOD      CLOUDY    30  25  80 CALM      30.24F
COLEMAN        CLOUDY    35  26  70 W6        30.22F WCI  30
$$

TXZ143>147-156>162-174-175-230900-
CENTRAL TEXAS

CITY           SKY/WX    TMP DP  RH WIND       PRES   REMARKS
WACO           CLOUDY    35  26  69 CALM      30.25S
WACO-MCGREGOR  CLOUDY    33  25  72 CALM      30.25
HILLSBORO      CLOUDY    36  26  65 CALM      30.23F
CORSICANA      CLOUDY    38  27  64 N5        30.25F WCI  34
MEXIA          CLOUDY    40  23  52 NW3       30.23F
HEARNE         CLOUDY    35  29  79 CALM      30.25F
CAMERON        CLOUDY    40  24  51 CALM      30.24F
TEMPLE         CLOUDY    33  24  69 N6        30.25F WCI  28
KILLEEN        CLEAR     36  24  60 NW5       30.22F WCI  32
KILLEEN-SKYLRK CLOUDY    38  25  59 NW3       30.24F
FORT HOOD      CLOUDY    41  24  50 NW3       30.20F
GATESVILLE     CLOUDY    32  25  74 CALM      30.26S
HAMILTON       CLOUDY    39  24  53 SW5       30.24F WCI  36
LAMPASAS       CLOUDY    35  27  73 CALM      30.23S
$$

TXZ095>097-106>112-122>126-135>138-148>153-164>167-230900-
EAST TEXAS

CITY           SKY/WX    TMP DP  RH WIND       PRES   REMARKS
PARIS          CLOUDY    38  23  55 N6        30.22F WCI  33
SULPHUR SPRNGS CLOUDY    37  28  72 CALM      30.25F
MOUNT PLEASANT CLOUDY    33  31  94 CALM      30.24F
GILMER         CLOUDY    35  32  90 MISG      30.22F
MINEOLA        CLOUDY    32  28  86 CALM      30.23F
TYLER          CLOUDY    35  31  85 CALM      30.22F
LONGVIEW       CLOUDY    36  34  92 CALM      30.22F
MARSHALL       CLOUDY    33  31  94 CALM      30.25S
ATHENS         CLOUDY    30  28  93 CALM      30.23S
PALESTINE      CLOUDY    32  31  94 CALM      30.24S
JACKSONVILLE   CLOUDY    42  31  63 N5        30.22F WCI  40
HENDERSON      CLOUDY    33  32  95 CALM      30.23S
CENTER         SUNNY     35  33  92 CALM      30.23S
NACOGDOCHES    CLEAR     36  33  89 CALM      30.23F
LUFKIN         CLEAR     37  35  92 CALM      30.22F
$$

SUPPLEMENTAL OBSERVATIONS (NWS FORT WORTH AREA)

CITY           SKY/WX    TMP DP  RH WIND       PRES   REMARKS
$$

SUPPLEMENTAL OBSERVATIONS (NWS NORMAN AREA)

CITY           SKY/WX    TMP DP  RH WIND       PRES   REMARKS
GOODLETT         N/A     36  21  55 SW7       30.16F WCI  30
ODELL            N/A     43  18  37 S10       30.18F WCI  37
CROWELL          N/A     37  19  47 S6        30.19F WCI  32
KNOX CITY        N/A     36  22  56 SW5       30.21F WCI  32
SEYMOUR          N/A     38  22  52 S7        30.20F WCI  33
$$

SUPPLEMENTAL OBSERVATIONS (NWS SAN ANGELO AREA)

CITY           SKY/WX    TMP DP  RH WIND       PRES   REMARKS
WEINERT          N/A     40  21  47 S8        30.21F WCI  34
HASKELL          N/A     36  22  55 S7        30.21F WCI  31
THROCKMORTON     N/A     38  21  51 SW5       30.22F WCI  34
STAMFORD         N/A     36  26  65 S6        30.22F WCI  31
CLYDE            N/A     42  21  44 S7        30.22F WCI  37
$$

SUPPLEMENTAL OBSERVATIONS (NWS SHREVEPORT AREA)

CITY           SKY/WX    TMP DP  RH WIND       PRES   REMARKS
$$

SUPPLEMENTAL OBSERVATIONS ARE A COLLECTION OF AUTOMATED INSTRUMENTS
THAT ARE MAINTAINED BY A VARIETY OF FEDERAL AND STATE AGENCIES.
CERTAIN ELEMENTS...SUCH AS HUMIDITY VALUES AND SUSTAINED WIND
SPEEDS...MAY BE APPROXIMATED.




USA.gov is the U.S. government's official web portal to all federal, state and local government web resources and services.